| time (UTC) | temp F | wind direction | speed MPH | gust MPH | rain 1hr in | rain 24hr in | rain mn in | humidity % | barometer mb |
| 20260506154412 | 80 | 0.0 | 0.0 | 0.00 | 0.00 | 0.00 | 42 | 1005.6 | |
| 20260506153406 | 80 | 0.0 | 0.0 | 0.00 | 0.00 | 0.00 | 39 | 1005.4 | |
| 20260506152401 | 80 | 0.0 | 0.0 | 0.00 | 0.00 | 0.00 | 39 | 1005.5 | |
| 20260506151356 | 80 | 0.0 | 0.0 | 0.00 | 0.00 | 0.00 | 39 | 1004.8 | |
| 20260506150350 | 80 | 0.0 | 0.0 | 0.00 | 0.00 | 0.00 | 39 | 1005.4 | |
| 20260506145345 | 81 | 0.0 | 0.0 | 0.00 | 0.00 | 0.00 | 39 | 1005.4 | |
| 20260506144340 | 81 | 0.0 | 0.0 | 0.00 | 0.00 | 0.00 | 39 | 1005.4 | |
| 20260506143334 | 81 | 0.0 | 0.0 | 0.00 | 0.00 | 0.00 | 39 | 1005.4 | |
| 20260506142329 | 80 | 0.0 | 0.0 | 0.00 | 0.00 | 0.00 | 42 | 1004.9 | |
| 20260506141324 | 80 | 0.0 | 0.0 | 0.00 | 0.00 | 0.00 | 42 | 1005.6 | |
| 20260506140318 | 80 | 0.0 | 0.0 | 0.00 | 0.00 | 0.00 | 42 | 1005.5 | |
| 20260506135313 | 80 | 0.0 | 0.0 | 0.00 | 0.00 | 0.00 | 43 | 1005.6 | |
| 20260506134308 | 80 | 0.0 | 0.0 | 0.00 | 0.00 | 0.00 | 42 | 1005.1 | |
| 20260506133302 | 80 | 0.0 | 0.0 | 0.00 | 0.00 | 0.00 | 43 | 1005.2 | |
| 20260506132257 | 80 | 0.0 | 0.0 | 0.00 | 0.00 | 0.00 | 41 | 1006.0 | |
| 20260506131252 | 80 | 0.0 | 0.0 | 0.00 | 0.00 | 0.00 | 42 | 1006.1 | |
| 20260506130246 | 80 | 0.0 | 0.0 | 0.00 | 0.00 | 0.00 | 43 | 1006.2 | |
| 20260506125241 | 78 | 0.0 | 0.0 | 0.00 | 0.00 | 0.00 | 43 | 1005.8 | |
| 20260506124236 | 77 | 0.0 | 0.0 | 0.00 | 0.00 | 0.00 | 44 | 1005.8 | |
| 20260506123230 | 77 | 0.0 | 0.0 | 0.00 | 0.00 | 0.00 | 44 | 1006.8 | |
| 20260506122225 | 77 | 0.0 | 0.0 | 0.00 | 0.00 | 0.00 | 45 | 1007.0 | |
| 20260506121220 | 76 | 0.0 | 0.0 | 0.00 | 0.00 | 0.00 | 45 | 1006.3 | |
| 20260506120214 | 77 | 0.0 | 0.0 | 0.00 | 0.00 | 0.00 | 46 | 1007.2 | |
| 20260506115209 | 76 | 0.0 | 0.0 | 0.00 | 0.00 | 0.00 | 46 | 1007.1 | |
| 20260506114204 | 77 | 0.0 | 0.0 | 0.00 | 0.00 | 0.00 | 45 | 1007.5 | |
| 20260506113158 | 77 | 0.0 | 0.0 | 0.00 | 0.00 | 0.00 | 46 | 1007.5 | |
| 20260506112153 | 77 | 0.0 | 0.0 | 0.00 | 0.00 | 0.00 | 46 | 1007.8 | |
| 20260506111147 | 77 | 0.0 | 0.0 | 0.00 | 0.00 | 0.00 | 47 | 1008.1 | |
| 20260506110143 | 77 | 0.0 | 0.0 | 0.00 | 0.00 | 0.00 | 47 | 1008.0 | |
| 20260506105137 | 77 | 0.0 | 0.0 | 0.00 | 0.00 | 0.00 | 49 | 1008.3 | |
| 20260506104131 | 76 | 0.0 | 0.0 | 0.00 | 0.00 | 0.00 | 49 | 1008.5 | |
| 20260506103126 | 77 | 0.0 | 0.0 | 0.00 | 0.00 | 0.00 | 49 | 1008.9 | |
| 20260506102121 | 77 | 0.0 | 0.0 | 0.00 | 0.00 | 0.00 | 49 | 1008.7 | |
| 20260506101115 | 77 | 0.0 | 0.0 | 0.00 | 0.00 | 0.00 | 48 | 1008.7 | |
| 20260506100110 | 76 | 0.0 | 0.0 | 0.00 | 0.00 | 0.00 | 47 | 1008.1 | |
| 20260506095105 | 76 | 0.0 | 0.0 | 0.00 | 0.00 | 0.00 | 48 | 1008.4 | |
| 20260506094059 | 76 | 0.0 | 0.0 | 0.00 | 0.00 | 0.00 | 48 | 1008.5 | |
| 20260506093054 | 76 | 0.0 | 0.0 | 0.00 | 0.00 | 0.00 | 48 | 1009.4 | |
| 20260506092049 | 75 | 0.0 | 0.0 | 0.00 | 0.00 | 0.00 | 50 | 1009.5 | |
| 20260506091043 | 75 | 0.0 | 0.0 | 0.00 | 0.00 | 0.00 | 49 | 1009.6 | |
| 20260506090038 | 74 | 0.0 | 0.0 | 0.00 | 0.00 | 0.00 | 48 | 1008.9 | |
| 20260506085033 | 74 | 0.0 | 0.0 | 0.00 | 0.00 | 0.00 | 50 | 1009.5 | |
| 20260506084027 | 73 | 0.0 | 0.0 | 0.00 | 0.00 | 0.00 | 52 | 1009.6 | |
| 20260506083022 | 73 | 0.0 | 0.0 | 0.00 | 0.00 | 0.00 | 51 | 1009.8 | |
| 20260506082017 | 73 | 0.0 | 0.0 | 0.00 | 0.00 | 0.00 | 51 | 1009.9 | |
| 20260506081011 | 73 | 0.0 | 0.0 | 0.00 | 0.00 | 0.00 | 51 | 1010.0 | |
| 20260506072950 | 71 | 0.0 | 0.0 | 0.00 | 0.00 | 0.00 | 53 | 1009.6 | |
| 20260506071945 | 72 | 0.0 | 0.0 | 0.00 | 0.00 | 0.00 | 55 | 1010.4 | |
| 20260506070939 | 71 | 0.0 | 0.0 | 0.00 | 0.00 | 0.00 | 56 | 1010.5 | |
| 20260506061913 | 70 | 0.0 | 0.0 | 0.00 | 0.00 | 0.00 | 59 | 1011.1 | |
| 20260506060907 | 69 | 0.0 | 0.0 | 0.00 | 0.00 | 0.00 | 60 | 1011.0 | |
| 20260506050835 | 66 | 0.0 | 0.0 | 0.00 | 0.00 | 0.00 | 64 | 1011.3 | |
| 20260506044824 | 66 | 0.0 | 0.0 | 0.00 | 0.00 | 0.00 | 65 | 1011.0 | |
| 20260506043819 | 65 | 0.0 | 0.0 | 0.00 | 0.00 | 0.00 | 65 | 1010.8 | |
| 20260506042814 | 65 | 0.0 | 0.0 | 0.00 | 0.00 | 0.00 | 65 | 1010.7 | |
| 20260506041808 | 66 | 0.0 | 0.0 | 0.00 | 0.00 | 0.00 | 65 | 1010.8 | |
| 20260506040803 | 66 | 0.0 | 0.0 | 0.00 | 0.00 | 0.00 | 65 | 1010.7 | |
| 20260506035758 | 65 | 0.0 | 0.0 | 0.00 | 0.00 | 0.00 | 65 | 1009.7 | |
| 20260506034752 | 65 | 0.0 | 0.0 | 0.00 | 0.00 | 0.00 | 65 | 1009.6 | |
| 20260506033747 | 65 | 0.0 | 0.0 | 0.00 | 0.00 | 0.00 | 65 | 1010.5 | |
| 20260506032742 | 65 | 0.0 | 0.0 | 0.00 | 0.00 | 0.00 | 65 | 1010.5 | |
| 20260506031736 | 66 | 0.0 | 0.0 | 0.00 | 0.00 | 0.00 | 65 | 1010.3 | |
| 20260506030731 | 66 | 0.0 | 0.0 | 0.00 | 0.00 | 0.00 | 65 | 1010.4 | |
| 20260506025726 | 66 | 0.0 | 0.0 | 0.00 | 0.00 | 0.00 | 65 | 1010.3 | |
| 20260506024720 | 66 | 0.0 | 0.0 | 0.00 | 0.00 | 0.00 | 65 | 1010.4 | |
| 20260506023715 | 66 | 0.0 | 0.0 | 0.00 | 0.00 | 0.00 | 65 | 1010.5 | |
| 20260506022710 | 66 | 0.0 | 0.0 | 0.00 | 0.00 | 0.00 | 65 | 1009.7 | |
| 20260506021704 | 66 | 0.0 | 0.0 | 0.00 | 0.00 | 0.00 | 65 | 1009.5 | |
| 20260506020659 | 67 | 0.0 | 0.0 | 0.00 | 0.00 | 0.00 | 65 | 1010.3 | |
| 20260506015654 | 67 | 0.0 | 0.0 | 0.00 | 0.00 | 0.00 | 65 | 1010.2 | |
| 20260506014648 | 67 | 0.0 | 0.0 | 0.00 | 0.00 | 0.00 | 64 | 1010.0 | |
| 20260506013643 | 67 | 0.0 | 0.0 | 0.00 | 0.00 | 0.00 | 64 | 1010.2 | |
| 20260506012638 | 67 | 0.0 | 0.0 | 0.00 | 0.00 | 0.00 | 65 | 1010.2 | |
| 20260506011632 | 67 | 0.0 | 0.0 | 0.00 | 0.00 | 0.00 | 64 | 1009.8 | |
| 20260506010627 | 67 | 0.0 | 0.0 | 0.00 | 0.00 | 0.00 | 63 | 1008.9 | |
| 20260506005622 | 68 | 0.0 | 0.0 | 0.00 | 0.00 | 0.00 | 63 | 1009.7 | |
| 20260506004616 | 67 | 0.0 | 0.0 | 0.00 | 0.00 | 0.00 | 63 | 1008.9 | |
| 20260506003611 | 68 | 0.0 | 0.0 | 0.00 | 0.00 | 0.00 | 62 | 1009.7 | |
| 20260506002606 | 68 | 0.0 | 0.0 | 0.00 | 0.00 | 0.00 | 61 | 1008.7 | |
| 20260506001600 | 69 | 0.0 | 0.0 | 0.00 | 0.00 | 0.00 | 61 | 1009.5 | |
| 20260506000555 | 68 | 0.0 | 0.0 | 0.00 | 0.00 | 0.00 | 60 | 1008.4 | |
| 20260505235550 | 69 | 0.0 | 0.0 | 0.00 | 0.00 | 0.00 | 59 | 1009.1 | |
| 20260505234544 | 69 | 0.0 | 0.0 | 0.00 | 0.00 | 0.00 | 59 | 1008.7 | |
| 20260505233539 | 69 | 0.0 | 0.0 | 0.00 | 0.00 | 0.00 | 59 | 1008.7 | |
| 20260505232534 | 69 | 0.0 | 0.0 | 0.00 | 0.00 | 0.00 | 58 | 1008.4 | |
| 20260505231528 | 70 | 0.0 | 0.0 | 0.00 | 0.00 | 0.00 | 57 | 1008.6 | |
| 20260505230523 | 70 | 0.0 | 0.0 | 0.00 | 0.00 | 0.00 | 57 | 1008.6 | |
| 20260505225518 | 70 | 0.0 | 0.0 | 0.00 | 0.00 | 0.00 | 57 | 1008.4 | |
| 20260505224512 | 70 | 0.0 | 0.0 | 0.00 | 0.00 | 0.00 | 57 | 1008.2 | |
| 20260505223507 | 69 | 0.0 | 0.0 | 0.00 | 0.00 | 0.00 | 57 | 1007.2 | |
| 20260505222502 | 69 | 0.0 | 0.0 | 0.00 | 0.00 | 0.00 | 57 | 1007.8 | |
| 20260505221456 | 70 | 0.0 | 0.0 | 0.00 | 0.00 | 0.00 | 56 | 1007.9 | |
| 20260505220451 | 69 | 0.0 | 0.0 | 0.00 | 0.00 | 0.00 | 56 | 1006.8 | |
| 20260505215445 | 70 | 0.0 | 0.0 | 0.00 | 0.00 | 0.00 | 56 | 1007.7 | |
| 20260505214440 | 69 | 0.0 | 0.0 | 0.00 | 0.00 | 0.00 | 56 | 1006.7 | |
| 20260505213435 | 70 | 0.0 | 0.0 | 0.00 | 0.00 | 0.00 | 56 | 1007.4 | |
| 20260505212430 | 69 | 0.0 | 0.0 | 0.00 | 0.00 | 0.00 | 56 | 1006.6 | |
| 20260505211424 | 69 | 0.0 | 0.0 | 0.00 | 0.00 | 0.00 | 55 | 1007.2 | |
| 20260505210419 | 69 | 0.0 | 0.0 | 0.00 | 0.00 | 0.00 | 53 | 1007.2 | |
| 20260505205413 | 69 | 0.0 | 0.0 | 0.00 | 0.00 | 0.00 | 53 | 1007.0 | |
| 20260505204408 | 69 | 0.0 | 0.0 | 0.00 | 0.00 | 0.00 | 52 | 1006.9 | |
| 20260505203403 | 69 | 0.0 | 0.0 | 0.00 | 0.00 | 0.00 | 51 | 1005.9 | |
| 20260505202357 | 71 | 0.0 | 0.0 | 0.00 | 0.00 | 0.00 | 50 | 1006.7 | |
| 20260505201352 | 72 | 0.0 | 0.0 | 0.00 | 0.00 | 0.00 | 49 | 1006.2 | |
| 20260505200347 | 72 | 0.0 | 0.0 | 0.00 | 0.00 | 0.00 | 49 | 1006.1 | |
| 20260505195341 | 71 | 0.0 | 0.0 | 0.00 | 0.00 | 0.00 | 49 | 1005.9 | |
| 20260505194336 | 71 | 0.0 | 0.0 | 0.00 | 0.00 | 0.00 | 48 | 1005.0 | |
| 20260505193331 | 72 | 0.0 | 0.0 | 0.00 | 0.00 | 0.00 | 48 | 1005.7 | |
| 20260505192325 | 72 | 0.0 | 0.0 | 0.00 | 0.00 | 0.00 | 48 | 1005.9 | |
| 20260505191320 | 72 | 0.0 | 0.0 | 0.00 | 0.00 | 0.00 | 48 | 1005.7 | |
| 20260505190315 | 72 | 0.0 | 0.0 | 0.00 | 0.00 | 0.00 | 48 | 1004.8 | |
| 20260505185309 | 73 | 0.0 | 0.0 | 0.00 | 0.00 | 0.00 | 48 | 1005.5 | |
| 20260505184304 | 73 | 0.0 | 0.0 | 0.00 | 0.00 | 0.00 | 47 | 1005.5 | |
| 20260505183259 | 73 | 0.0 | 0.0 | 0.00 | 0.00 | 0.00 | 47 | 1005.5 | |
| 20260505182253 | 74 | 0.0 | 0.0 | 0.00 | 0.00 | 0.00 | 47 | 1005.3 | |
| 20260505181248 | 74 | 0.0 | 0.0 | 0.00 | 0.00 | 0.00 | 46 | 1005.2 | |
| 20260505180243 | 75 | 0.0 | 0.0 | 0.00 | 0.00 | 0.00 | 46 | 1005.1 | |
| 20260505175237 | 74 | 0.0 | 0.0 | 0.00 | 0.00 | 0.00 | 46 | 1004.5 | |
| 20260505174232 | 76 | 0.0 | 0.0 | 0.00 | 0.00 | 0.00 | 45 | 1005.4 | |
| 20260505173227 | 76 | 0.0 | 0.0 | 0.00 | 0.00 | 0.00 | 45 | 1005.2 | |
| 20260505172221 | 76 | 0.0 | 0.0 | 0.00 | 0.00 | 0.00 | 45 | 1004.4 | |
| 20260505171216 | 77 | 0.0 | 0.0 | 0.00 | 0.00 | 0.00 | 44 | 1005.1 | |
| 20260505170211 | 78 | 0.0 | 0.0 | 0.00 | 0.00 | 0.00 | 44 | 1005.3 | |
| 20260505165205 | 78 | 0.0 | 0.0 | 0.00 | 0.00 | 0.00 | 44 | 1005.3 | |
| 20260505164200 | 78 | 0.0 | 0.0 | 0.00 | 0.00 | 0.00 | 43 | 1005.5 | |
| 20260505163155 | 78 | 0.0 | 0.0 | 0.00 | 0.00 | 0.00 | 43 | 1005.4 | |
| 20260505162149 | 78 | 0.0 | 0.0 | 0.00 | 0.00 | 0.00 | 43 | 1005.4 | |
| 20260505161144 | 78 | 0.0 | 0.0 | 0.00 | 0.00 | 0.00 | 42 | 1004.8 | |
| 20260505160139 | 79 | 0.0 | 0.0 | 0.00 | 0.00 | 0.00 | 42 | 1005.5 |